#timestamp,LO_Frequency,Hit,StdDev 
1619168415.7,286047000.6,P
1619168435.5,286047000.1,N
1619168455.4,286046999.8,N
1619168475.2,286047000.9,N
1619168495.0,286046998.7,Y
1619168495.9,286046998.7,P
1619168515.8,286046995.4,P
1619168535.6,286046994.9,N
1619168555.5,286046997.1,N
1619168575.3,286046997.0,N
1619168595.1,286046998.4,N
1619168615.9,286047001.0,N
1619168635.7,286047002.8,N
1619168655.5,286047001.6,N
1619168675.4,286047004.2,N
1619168695.2,286047000.1,N
1619168715.1,286047001.8,N
1619168716.0,286047001.8,N
1619168735.8,286047002.3,N
1619168755.6,286047003.4,N
1619168775.5,286047004.6,N
1619168795.3,286047003.9,N
1619168845.2,286046999.1,E
1619168855.1,286046999.1,N
1619168875.9,286047000.1,P
1619168895.7,286047002.3,P
1619168915.5,286047002.8,N
1619168935.4,286047001.9,N
1619168955.2,286046999.3,N
1619168975.1,286047001.2,N
1619168976.0,286047001.2,N
1619168995.8,286047000.0,N
1619169015.6,286046999.7,N
1619169035.5,286047004.2,Y
1619169055.3,286047000.3,P
1619169075.2,286047000.2,N
1619169095.9,286047004.2,P
1619169115.7,286047004.7,N
1619169135.6,286047005.7,N
1619169155.4,286047003.1,N
1619169175.3,286047003.8,N
1619169195.1,286047004.0,N
1619169196.0,286047004.0,N
1619169215.8,286047001.6,N
1619169235.7,286047001.4,N
1619169255.5,286047002.5,N
1619169275.4,286047002.1,N
1619169295.2,286047000.2,N
1619169315.0,286046998.5,N
1619169315.9,286046998.5,N
1619169335.8,286046998.9,N
1619169355.6,286047000.5,N
1619169375.5,286047002.6,N
1619169395.3,286047004.3,N
1619169415.1,286047006.0,N
1619169435.9,286047003.6,N
1619169455.7,286047004.1,N
1619169475.6,286047002.8,N
1619169495.4,286047000.3,N
1619169515.2,286046998.7,N
1619169535.1,286047001.0,N
1619169536.0,286047001.0,N
1619169555.8,286047000.9,N
1619169575.7,286047001.2,N
1619169595.5,286046998.7,N
1619169615.3,286047000.4,N
1619169635.2,286047002.7,N
1619169655.0,286047000.4,N
1619169655.9,286047000.4,N
1619169675.8,286047000.1,N
1619169695.6,286046998.1,N
1619169715.4,286047002.3,N
1619169735.3,286047003.8,N
1619169755.1,286047003.4,N
1619169775.8,286047003.6,N
1619169795.7,286047003.6,N
1619169815.5,286047006.0,N
1619169835.4,286047007.6,Y
1619169855.2,286047005.2,P
1619169875.0,286047004.6,N
1619169875.9,286047004.6,N
1619169895.8,286047003.1,N
1619169915.6,286047004.6,Y
1619169935.5,286046998.3,P
1619169955.3,286046998.5,N
1619169975.1,286046999.8,N
1619169995.9,286046998.5,N
1619170015.7,286046999.3,N
1619170035.5,286046998.6,N
1619170055.4,286046998.8,N
1619170075.2,286046998.4,N
1619170095.1,286046999.0,N
1619170096.0,286046999.0,N
1619170115.8,286046998.8,N
1619170135.6,286046999.9,N
1619170155.5,286047001.1,N
1619170175.3,286046999.6,N
1619170195.1,286047001.2,N
1619170215.9,286046996.7,N
1619170235.7,286046999.3,N
1619170255.6,286046996.5,N
1619170275.4,286046997.2,N
1619170295.2,286046999.5,N
1619170315.1,286046998.6,N
1619170316.0,286046998.6,N
1619170335.8,286046999.0,N
1619170355.6,286046997.1,N
1619170375.5,286046997.8,N
1619170395.3,286046995.9,N
1619170415.2,286046997.6,N
1619170435.9,286046995.5,N
1619170455.7,286046993.4,Y
1619170475.6,286046996.8,P
1619170495.4,286046996.7,P
1619170515.2,286046999.6,N
1619170535.1,286046999.1,N
1619170536.0,286046999.1,N
1619170555.8,286046997.0,N
1619170575.7,286046998.3,N
1619170595.5,286046999.0,N
1619170615.3,286046998.9,N
1619170635.2,286046994.9,Y
1619170655.0,286046999.5,P
1619170686.0,286046999.7,E
1619170695.9,286047002.5,N
1619170715.7,286047001.7,P
1619170735.5,286047004.2,P
1619170755.4,286047004.7,Y
1619170775.2,286047003.2,P
1619170795.1,286047002.6,P
1619170796.0,286047002.6,P
1619170815.8,286046998.1,Y
1619170835.6,286046997.0,P
1619170855.5,286046995.5,N
1619170875.3,286046994.9,N
1619170895.2,286046995.1,N
1619170915.9,286046995.6,N
1619170935.7,286046997.7,N
1619170955.6,286046996.2,N
1619170975.4,286046997.9,N
1619170995.3,286046998.9,N
1619171015.1,286046995.0,N
1619171016.0,286046995.0,N
1619171035.8,286046993.7,N
1619171055.7,286046995.5,N
1619171075.5,286046995.1,N
1619171095.3,286046995.3,N
1619171115.2,286046996.5,N
1619171135.0,286046996.7,N
1619171135.9,286046996.7,N
1619171155.8,286046997.3,N
1619171175.6,286046995.6,N
1619171195.4,286046996.0,N
1619171215.3,286046995.1,N
1619171235.1,286046995.4,N
1619171255.9,286046997.2,N
1619171275.7,286046997.5,N
1619171295.5,286046994.9,N
1619171315.4,286046993.4,Y
1619171335.2,286047000.9,P
1619171355.1,286047000.8,N
1619171356.0,286047000.8,N
1619171375.8,286046999.9,N
1619171395.6,286046999.9,N
1619171415.5,286046999.9,N
1619171435.3,286046998.3,N
1619171455.1,286047000.6,N
1619171475.9,286046999.7,N
1619171495.7,286047002.5,N
1619171515.6,286047002.1,N
1619171535.4,286047000.4,N
1619171555.2,286047000.5,N
1619171575.1,286047000.0,N
1619171576.0,286047000.0,N
1619171595.8,286046999.7,N
1619171615.6,286047000.9,N
1619171635.5,286046999.9,N
1619171655.3,286047001.2,N
1619171675.2,286047000.4,N
1619171695.9,286046997.0,N
1619171715.7,286046995.3,Y
1619171735.6,286046994.5,P
1619171755.4,286046994.5,N
1619171775.2,286046994.5,N
1619171795.1,286046993.7,N
1619171796.0,286046993.7,N
1619171815.8,286046993.3,Y
1619171835.7,286047001.2,P
1619171855.5,286047004.0,N
1619171875.3,286047003.7,N
1619171895.2,286047001.7,N
1619171915.0,286047003.7,N
1619171915.9,286047003.7,N
1619171935.8,286047007.5,N
1619171955.6,286047005.2,N
1619171975.4,286047004.0,N
1619171995.3,286047005.8,N
